Location: Vassar Physics Lab
(41.6843°N, 73.8954°W)
Time: 22:09:18
(UTC-04:00)

Daily predictions for brighter satellites

Satellite Brightness Start Highest point End
(mag) Time Altitude Azimuth Time Altitude Azimuth Time Altitude Azimuth
METEOR-M 4.2 19:29:08 10° SSE 19:34:29 87° WSW 19:39:51 10° NNW
Helios 1B rocket 4.1 19:37:23 10° ENE 19:39:38 14° E 19:41:53 10° SE
Helios 1A 4.5 19:38:51 10° ESE 19:41:44 19° ENE 19:44:39 10° NNE
Cosmos 1437 Rocket 2.9 19:42:00 10° S 19:45:52 52° E 19:49:50 10° NNE
SJ-6B 2.7 19:42:59 10° SSE 19:46:43 87° ENE 19:50:28 10° NNW
H-2A R/B 4.3 19:42:54 10° SSW 19:47:26 28° SE 20:04:22 10° E
Cosmos 2098 4.2 19:45:11 10° S 19:48:38 85° ESE 19:51:39 10° N
Lacrosse 4 Rocket 1.2 19:45:02 10° SSW 19:49:03 70° ESE 19:53:06 10° NNE
Resurs 1-3 4.0 19:48:18 10° SE 19:52:25 41° ENE 19:56:34 10° N
USA 215 3.8 19:52:50 10° ENE 19:58:44 35° SE 20:04:35 10° SSW
Cosmos 1844 Rocket 2.8 19:53:05 10° SSW 19:58:45 88° WNW 20:04:26 10° NNE
Spot 2 Rocket 3.6 19:54:42 10° SSE 19:59:41 58° ENE 20:04:43 10° N
Cosmos 2150 Rocket 3.9 19:56:07 10° SSW 20:01:15 77° ESE 20:06:25 10° NNE
Cosmos 1758 4.5 20:03:24 10° SE 20:06:31 22° E 20:09:40 10° NE
FengYun 1-2 T 4.3 20:01:48 10° SSE 20:07:22 88° WSW 20:13:01 10° NNW
Cosmos 2278 Rocket 2.4 20:02:36 10° S 20:08:00 47° ESE 20:13:25 10° NE
Cosmos 1833 Rocket 4.1 20:03:57 10° N 20:08:07 21° NE 20:10:56 15° E
Cosmos 1934 Rocket 3.9 20:05:54 10° S 20:12:02 75° E 20:18:07 10° N
Cosmos 1378 3.3 20:09:10 10° N 20:12:56 76° W 20:16:40 10° S
SAR-Lupe-4 4.1 20:10:59 13° SE 20:13:51 39° ENE 20:17:13 10° N
Cosmos 1898 Rocket 4.1 20:09:04 10° SSW 20:14:20 64° WNW 20:19:36 10° NNE
Cosmos 1939 Rocket 4.3 20:13:32 18° E 20:14:51 21° ENE 20:18:00 10° NNE
Cosmos 990 Rocket 3.9 20:10:09 10° SSW 20:15:23 78° ESE 20:20:39 10° NNE
Tiangong 1 0.9 20:13:00 10° W 20:15:56 74° SSW 20:17:21 27° ESE
Cosmos 1953 3.2 20:13:23 10° SSE 20:16:51 27° E 20:20:19 10° NNE
Envisat 3.8 20:14:18 16° ESE 20:17:40 32° ENE 20:22:09 10° N
Okean 3 Rocket 3.8 20:13:38 10° N 20:17:52 46° ENE 20:22:01 10° SSE
FENGYUN 3A 4.1 20:13:04 10° S 20:18:26 66° WSW 20:23:50 10° NNW
H-2A R/B 3.0 20:18:31 10° S 20:22:22 74° W 20:26:19 10° NNW
Meteor 1-24 Rocket 3.7 20:16:59 10° N 20:22:28 83° W 20:28:07 10° S
Cosmos 1125 Rocket 4.2 20:18:29 10° SSE 20:22:57 30° E 20:27:28 10° NE
USA 186 1.0 20:24:57 48° ENE 20:24:58 48° ENE 20:27:10 10° N
Abrixas 3.7 20:23:28 10° NW 20:26:00 28° NNE 20:26:54 23° NE
USA 267 4.4 20:27:21 14° ENE 20:31:55 31° NNE 20:37:30 10° NW
Geosat 4.0 20:27:02 10° NNE 20:32:06 89° SE 20:37:07 10° SSW
SAR-Lupe-1 4.0 20:31:15 24° SSE 20:33:15 60° ENE 20:36:48 10° N
ALOS 3.9 20:33:04 10° SSW 20:37:21 36° W 20:41:41 10° NNW
Cosmos 2082 Rocket 2.9 20:32:23 10° N 20:37:39 37° ENE 20:39:45 27° E
Lacrosse 5 rocket 3.3 20:35:54 10° NNW 20:38:14 15° NNE 20:39:27 13° NE
GP-B 3.3 20:37:25 22° SSE 20:39:58 48° E 20:44:15 10° N
CZ-3B DEB 3.0 20:29:19 10° SW 20:40:38 73° NW 20:45:37 10° NE
Resurs 01 Rocket 2.6 20:36:39 10° S 20:40:53 48° W 20:45:12 10° NNW
Meteor 1-4 Rocket 2.6 20:40:40 43° SE 20:41:13 48° E 20:44:36 10° NNE
CZ-4B DEB 2.7 20:41:44 54° E 20:41:53 55° ENE 20:44:56 10° N
Cosmos 1766 4.1 20:38:24 10° SSW 20:42:11 52° W 20:46:00 10° N
Cosmos 1544 2.9 20:39:21 10° S 20:42:58 75° E 20:46:38 10° NNE
Cosmos 1818 3.9 20:37:51 10° NNW 20:43:10 50° NE 20:45:20 32° ESE
RESURS DK-1 2.6 20:39:19 10° NNW 20:43:26 68° WSW 20:46:08 21° SSE
ERS-1 Rocket 3.8 20:43:31 29° E 20:44:26 31° ENE 20:48:51 10° N
SL-27 R/B 3.5 20:44:17 10° NNW 20:47:44 46° WSW 20:50:28 15° S
BREEZE-M DEB (TANK) 3.6 20:45:07 10° SSW 20:48:26 42° SE 20:58:16 10° ENE
Cosmos 2100 Rocket 4.3 20:44:06 15° SSE 20:48:58 43° E 20:54:56 10° NNE
Cosmos 1605 Rocket 4.1 20:43:31 10° S 20:49:46 81° W 20:56:09 10° N
Timation 1 Rocket 4.3 20:44:12 10° S 20:50:04 59° ESE 20:55:59 10° NNE
Meteor 1-29 2.8 20:47:18 10° NNE 20:50:46 74° ESE 20:52:30 27° S
COSMOS 2487 3.7 20:48:17 10° N 20:50:46 29° NE 20:50:46 29° NE
Lacrosse 5 1.9 20:48:12 10° SW 20:53:17 80° NW 20:58:10 11° NE
Cosmos 1766 Rocket 3.6 20:52:46 10° N 20:57:12 57° E 20:57:57 50° ESE
Cosmos 1076 Rocket 3.3 20:54:03 10° N 20:58:20 83° E 20:59:48 40° SSE
SPOT 5 4.3 20:58:37 25° ENE 20:58:37 25° ENE 21:02:40 10° NNE
Cosmos 1269 Rocket 4.1 20:53:29 10° NNW 20:58:42 58° ENE 21:00:06 43° ESE
Cosmos 2098 Rocket 4.3 20:54:00 10° S 21:00:58 84° E 21:08:38 10° N
Meteor 1-21 Rocket 4.2 20:56:29 10° N 21:02:19 80° E 21:05:51 25° SSE
OE (NEXTSAT) 4.4 20:59:04 10° WSW 21:02:26 76° SSW 21:02:26 76° SSW
ARGOS 4.3 21:06:43 25° NE 21:06:43 25° NE 21:10:32 10° N
Cosmos 1802 Rocket 4.2 21:05:09 41° ESE 21:06:19 45° E 21:12:08 10° NNE
Cosmos 468 4.5 21:02:54 10° NNW 21:08:09 82° WSW 21:10:22 36° S
Cosmos 2344 4.3 21:06:15 10° SW 21:13:47 58° NW 21:22:29 10° NNE
Cosmos 2061 Rocket 4.0 21:11:25 33° SSE 21:14:12 59° E 21:20:30 10° NNE
Helios 1B rocket 3.5 21:11:13 10° N 21:15:11 46° WNW 21:19:08 10° SW
Helios 1A 4.3 21:14:06 16° SSW 21:17:02 38° W 21:20:57 10° NNW
Cosmos 1867 3.4 21:12:45 10° SSW 21:18:08 68° ESE 21:23:35 10° NE
Timation 2 Rocket 3.9 21:12:11 10° NNW 21:18:31 64° ENE 21:19:44 53° ESE
Cosmos 1674 3.0 21:15:26 10° N 21:18:33 59° NNW 21:18:33 59° NNW
Cosmos-2242 3.3 21:22:00 54° NNE 21:22:00 54° NNE 21:25:22 10° N
Cosmos 1340 Rocket 3.9 21:24:36 10° N 21:27:12 38° N 21:27:12 38° N
Terra 4.3 21:34:10 10° NNE 21:34:10 10° NNE 21:34:14 10° NNE
Cosmos 1470 4.3 21:33:41 30° N 21:33:41 30° N 21:35:48 10° N
Cosmos 372 Rocket 3.9 21:29:36 10° SSW 21:34:43 80° WNW 21:39:53 10° NNE
USA 215 3.5 21:35:30 10° NE 21:42:00 68° NW 21:48:26 10° WSW
H-2A R/B 3.5 21:45:55 26° NNE 21:45:55 26° NNE 21:48:47 10° N
Cosmos 158 Rocket 4.3 21:43:59 10° NNW 21:49:00 61° WSW 21:49:00 61° WSW
Cosmos 1459 Rocket 4.2 21:45:22 25° SSW 21:49:13 70° W 21:55:25 10° N
Cosmos 1939 Rocket 4.5 21:49:27 32° W 21:49:35 32° W 21:53:19 10° NNW
NOAA 11 4.4 21:51:35 65° N 21:51:35 65° N 21:56:18 10° N
Cosmos 2173 Rocket 4.2 21:48:08 30° SSW 21:51:16 69° W 21:57:30 10° N
Cosmos 2278 Rocket 4.2 21:47:29 10° WSW 21:52:17 27° NW 21:57:06 10° N
Cosmos 1833 Rocket 2.8 21:46:58 10° NNW 21:52:32 65° WSW 21:52:40 65° WSW
CZ-3 Stage 3 3.7 21:31:27 10° W 21:53:33 42° SSW 21:54:42 40° S
USA 267 3.3 22:14:41 72° N 22:14:41 72° N 22:20:50 10° NW
Lacrosse 5 rocket 4.1 22:14:19 10° NW 22:15:09 16° NW 22:15:09 16° NW
Cosmos 2082 Rocket 3.5 22:16:36 10° NW 22:21:38 33° WSW 22:21:38 33° WSW
Lacrosse 5 4.0 22:33:00 10° WNW 22:36:57 22° NNW 22:37:28 22° NNW
CZ-3B DEB 4.3 22:49:27 10° WNW 22:53:28 17° NNW 22:53:28 17° NNW
